Location: Penzberg
(47.7615°N, 11.3159°E)
Time: 03:37:08
(UTC+01:00)

Amateur Radio Satellites - All Passes

Search period start: 21 January 2018 03:07
Search period end: 22 January 2018 03:07
Location: Penzberg, 47.7615°N, 11.3159°E

Satellite Date Start Highest point End Downlink Frequencies (MHz)
Time Altitude Azimuth
nSIGHT-1 21 Jan 03:08:55 03:11:43 28° 217° (SW) 03:14:29 .
Gurwin Techsat 1B 21 Jan 03:14:18 03:19:08 36° 295° (WNW) 03:23:56 435.225
O/OREOS (USA 219) 21 Jan 03:14:53 03:15:00 10° 322° (NW) 03:15:06 437.305
ISS 21 Jan 03:21:02 03:24:01 32° 216° (SW) 03:26:59 437.550
Oscar 19 21 Jan 03:30:59 03:34:48 21° 301° (WNW) 03:38:36 437.125/150
AO-7 21 Jan 03:36:20 03:44:33 55° 102° (ESE) 03:52:42 .
ITUPSAT 1 21 Jan 04:03:59 04:07:38 22° 268° (W) 04:11:20 437.325
KKS-1 21 Jan 04:28:43 04:33:05 64° 72° (ENE) 04:37:28 437.445
ITAMSAT 1 21 Jan 04:35:37 04:40:50 76° 288° (WNW) 04:46:02 435.822/435.867
CUBESAT XI-V 21 Jan 04:39:24 04:42:56 21° 269° (W) 04:46:29 437.345
DOVE 4 21 Jan 04:43:26 04:47:32 41° 98° (E) 04:51:50 437.250
STARS 21 Jan 04:45:26 04:49:29 39° 68° (ENE) 04:53:34 437.465
M-CUBED/EXP-1 PRIME 21 Jan 04:54:43 04:57:38 26° 101° (ESE) 05:00:27 437.505
XW-2B 21 Jan 05:10:06 05:10:25 10° 87° (E) 05:10:44 145.730 - 145.750
AO-7 21 Jan 05:29:25 05:37:09 43° 303° (WNW) 05:44:49 .
LilacSat-2 21 Jan 05:35:42 05:38:44 22° 94° (E) 05:41:44 437.200
XW-2C 21 Jan 05:38:07 05:41:05 22° 93° (E) 05:44:02 145.795 - 145.815
HO-68 21 Jan 05:42:34 05:46:34 15° 86° (E) 05:50:33 435.675
SO-50 21 Jan 05:53:28 05:57:53 65° 124° (SE) 06:02:24 436.795
STRAND 1 21 Jan 05:54:58 05:59:31 34° 65° (ENE) 06:04:04 437.568
KKS-1 21 Jan 06:07:30 06:10:04 15° 270° (W) 06:12:40 437.445
CUTE-I 21 Jan 06:07:54 06:12:52 38° 97° (E) 06:17:48 437.470
CUTE 1.7 + AOD 2 21 Jan 06:08:57 06:11:31 16° 90° (E) 06:14:05 437.475
FALCONSAT 3 21 Jan 06:11:39 06:13:11 12° 179° (S) 06:14:42 435.103
KAITUO 1B 21 Jan 06:12:39 06:16:06 37° 98° (E) 06:19:32 145.475/437.950
XW-2F 21 Jan 06:14:05 06:17:45 51° 99° (E) 06:21:23 145.980 - 146.000
ITAMSAT 1 21 Jan 06:16:57 06:19:27 14° 307° (NW) 06:21:58 435.822/435.867
CUBEBUG 2 21 Jan 06:19:53 06:22:48 16° 88° (E) 06:25:43 437.445
DOVE 4 21 Jan 06:21:39 06:25:03 23° 295° (WNW) 06:28:34 437.250
STARS 21 Jan 06:22:26 06:25:57 24° 266° (W) 06:29:30 437.465
XW-2D 21 Jan 06:23:39 06:27:26 75° 102° (ESE) 06:31:11 145.860 - 145.880
NUDT-PHONESAT 21 Jan 06:23:43 06:27:18 47° 99° (E) 06:30:49 437.300
UWE-3 21 Jan 06:27:24 06:28:02 10° 85° (E) 06:28:39 435.000/436.395/437.385
M-CUBED/EXP-1 PRIME 21 Jan 06:29:16 06:31:57 22° 301° (WNW) 06:34:33 437.505
FO-29 21 Jan 06:37:44 06:43:54 42° 67° (ENE) 06:49:25 435.910
XW-2B 21 Jan 06:41:17 06:45:03 71° 285° (WNW) 06:48:47 145.730 - 145.750
LilacSat-2 21 Jan 07:09:40 07:13:03 31° 292° (WNW) 07:16:24 437.200
XW-2C 21 Jan 07:11:56 07:15:19 31° 291° (WNW) 07:18:40 145.795 - 145.815
AAUSAT CUBESAT 2 21 Jan 07:13:27 07:16:28 19° 92° (E) 07:19:28 437.432
AO-7 21 Jan 07:24:05 07:27:44 14° 327° (NNW) 07:31:24 .
RS-15 21 Jan 07:26:11 07:37:05 39° 107° (ESE) 07:47:49 29.354- 29.394
HO-68 21 Jan 07:28:16 07:35:28 77° 105° (ESE) 07:42:38 435.675
Oscar 11 21 Jan 07:30:13 07:32:01 12° 88° (E) 07:33:48 .
SEEDS 21 Jan 07:30:58 07:35:09 67° 102° (ESE) 07:39:16 437.485
STRAND 1 21 Jan 07:33:58 07:38:39 37° 263° (W) 07:43:22 437.568
SO-50 21 Jan 07:35:00 07:38:45 25° 325° (NW) 07:42:33 436.795
CUTE 1.7 + AOD 2 21 Jan 07:43:34 07:47:43 56° 288° (WNW) 07:51:49 437.475
KAITUO 1B 21 Jan 07:47:11 07:49:50 19° 295° (WNW) 07:52:28 145.475/437.950
CUTE-I 21 Jan 07:48:05 07:52:52 35° 296° (WNW) 07:57:38 437.470
XW-2F 21 Jan 07:49:16 07:51:28 15° 298° (WNW) 07:53:38 145.980 - 146.000
CUBEBUG 2 21 Jan 07:55:08 07:59:53 69° 286° (WNW) 08:04:37 437.445
TIGRISAT 21 Jan 07:56:37 07:59:52 20° 61° (ENE) 08:03:11 435.000
NUDT-PHONESAT 21 Jan 07:58:32 08:00:46 16° 297° (WNW) 08:02:59 437.300
XW-2D 21 Jan 07:59:52 08:01:01 11° 301° (WNW) 08:02:11 145.860 - 145.880
UWE-3 21 Jan 08:00:30 08:05:14 82° 103° (ESE) 08:09:52 435.000/436.395/437.385
UNISAT 6 21 Jan 08:11:12 08:15:01 29° 65° (ENE) 08:18:56 437.425
XW-2A 21 Jan 08:17:43 08:21:06 84° 102° (ESE) 08:24:27 145.665 - 145.685
O/OREOS (USA 219) 21 Jan 08:19:44 08:21:29 12° 41° (NE) 08:23:15 437.305
FO-29 21 Jan 08:22:44 08:29:00 39° 263° (W) 08:34:39 435.910
ZACube-1 21 Jan 08:24:14 08:28:51 77° 102° (ESE) 08:33:21 437.345
AO-73 21 Jan 08:31:00 08:35:36 79° 103° (ESE) 08:40:05 145.935
BEESAT 3 21 Jan 08:42:32 08:43:05 10° 109° (ESE) 08:43:39 437.485
AAUSAT CUBESAT 2 21 Jan 08:48:13 08:52:06 42° 290° (WNW) 08:55:58 437.432
PCSat 21 Jan 08:51:20 08:54:32 16° 104° (ESE) 08:57:44 145.827
Oscar 11 21 Jan 09:04:21 09:08:41 76° 286° (WNW) 09:13:00 .
SEEDS 21 Jan 09:08:01 09:10:18 15° 300° (WNW) 09:12:36 437.485
YUBILEINY 21 Jan 09:08:34 09:16:34 37° 67° (ENE) 09:24:28 435.215
HO-68 21 Jan 09:16:50 09:22:34 27° 306° (NW) 09:28:18 435.675
SO-50 21 Jan 09:19:46 09:20:50 11° 349° (N) 09:21:55 436.795
DELFI C3 21 Jan 09:24:14 09:27:52 35° 97° (E) 09:31:29 145.870
TIGRISAT 21 Jan 09:31:50 09:36:10 53° 261° (W) 09:40:39 435.000
CUBEBUG 2 21 Jan 09:34:20 09:35:37 11° 305° (NW) 09:36:53 437.445
RS-15 21 Jan 09:36:23 09:48:46 76° 312° (NW) 10:00:53 29.354- 29.394
UWE-3 21 Jan 09:38:23 09:41:01 15° 302° (WNW) 09:43:40 435.000/436.395/437.385
UNISAT 6 21 Jan 09:47:33 09:51:37 35° 264° (W) 09:55:49 437.425
PRISM 21 Jan 09:57:15 10:01:19 79° 75° (ENE) 10:05:23 437.425
O/OREOS (USA 219) 21 Jan 09:57:20 10:01:49 67° 63° (ENE) 10:06:16 437.305
ZACube-1 21 Jan 10:01:52 10:04:31 15° 301° (WNW) 10:07:08 437.345
Max Valier Satellite 21 Jan 10:02:20 10:06:02 64° 102° (ESE) 10:09:41 145.860
AO-73 21 Jan 10:08:40 10:11:12 15° 301° (WNW) 10:13:42 145.935
POLYITAN 1 21 Jan 10:09:30 10:12:26 19° 62° (ENE) 10:15:24 437.675
BEESAT 3 21 Jan 10:15:57 10:19:56 86° 125° (SE) 10:23:57 437.485
EO-88 21 Jan 10:20:52 10:24:30 69° 102° (ESE) 10:28:07 145.990 - 145.960
NANOSAT C BR1 21 Jan 10:24:34 10:27:52 22° 64° (ENE) 10:31:11 145.865
AIST 2D 21 Jan 10:27:24 10:30:55 75° 75° (ENE) 10:34:26 435.315
PCSat 21 Jan 10:31:45 10:37:10 87° 302° (WNW) 10:42:39 145.827
QB50P2 21 Jan 10:38:02 10:41:56 37° 68° (ENE) 10:45:52 145.880/145.840
Oscar 11 21 Jan 10:43:27 10:44:02 10° 304° (NW) 10:44:37 .
DELFI C3 21 Jan 10:59:21 11:02:25 22° 295° (WNW) 11:05:29 145.870
SO-50 21 Jan 11:01:49 11:03:26 12° 15° (NNE) 11:05:03 436.795
AO-85 21 Jan 11:02:35 11:03:46 11° 107° (ESE) 11:04:57 145.980
BEESAT 2 21 Jan 11:04:11 11:08:12 75° 124° (SE) 11:12:15 435.950
YUBILEINY 21 Jan 11:05:18 11:13:47 58° 269° (W) 11:22:12 435.215
DUCHIFAT 1 21 Jan 11:07:14 11:11:18 50° 71° (ENE) 11:15:25 145.980
EO-79 21 Jan 11:08:32 11:12:44 68° 73° (ENE) 11:16:59 145.935-145.965
ESTCUBE 1 21 Jan 11:19:26 11:23:36 35° 97° (E) 11:27:42 437.505/2401.250
Gurwin Techsat 1B 21 Jan 11:22:00 11:24:48 15° 54° (NE) 11:27:36 435.225
Oscar 19 21 Jan 11:33:24 11:37:16 22° 59° (ENE) 11:41:10 437.125/150
PRISM 21 Jan 11:36:18 11:37:07 10° 272° (W) 11:37:56 437.425
Max Valier Satellite 21 Jan 11:37:45 11:39:20 12° 299° (WNW) 11:40:56 145.860
O/OREOS (USA 219) 21 Jan 11:38:08 11:40:40 15° 261° (W) 11:43:11 437.305
AO-91 21 Jan 11:39:34 11:41:26 14° 61° (ENE) 11:43:21 145.960
LO-87 21 Jan 11:39:36 11:43:14 79° 103° (ESE) 11:46:52 145.935 - 145.965
POLYITAN 1 21 Jan 11:43:41 11:47:50 53° 260° (W) 11:52:02 437.675
RS-15 21 Jan 11:52:15 12:03:30 39° 341° (NNW) 12:14:24 29.354- 29.394
BEESAT 3 21 Jan 11:55:12 11:57:59 18° 327° (NNW) 12:00:46 437.485
EO-88 21 Jan 11:56:26 11:57:36 11° 300° (WNW) 11:58:45 145.990 - 145.960
NANOSAT C BR1 21 Jan 11:59:21 12:03:20 41° 262° (W) 12:07:22 145.865
BUGSAT 1 21 Jan 12:07:55 12:11:53 52° 71° (ENE) 12:15:56 437.445
QB50P2 21 Jan 12:14:21 12:17:48 24° 266° (W) 12:21:18 145.880/145.840
PCSat 21 Jan 12:17:10 12:21:21 22° 325° (NW) 12:25:33 145.827
AO-85 21 Jan 12:39:19 12:43:20 88° 308° (NW) 12:47:42 145.980
SO-50 21 Jan 12:41:17 12:45:23 29° 38° (NE) 12:49:32 436.795
BEESAT 2 21 Jan 12:43:21 12:46:22 20° 326° (NW) 12:49:24 435.950
DUCHIFAT 1 21 Jan 12:44:23 12:47:15 18° 269° (W) 12:50:08 145.980
EO-79 21 Jan 12:46:52 12:48:57 13° 271° (W) 12:51:03 145.935-145.965
AO-7 21 Jan 12:48:31 12:55:15 28° 48° (NE) 13:01:57 .
SPROUT 21 Jan 12:49:32 12:53:52 76° 103° (ESE) 12:58:10 437.525
VELOX 1 21 Jan 12:54:19 12:58:34 45° 99° (E) 13:02:48 145.980
ESTCUBE 1 21 Jan 12:56:27 13:00:17 28° 295° (WNW) 13:04:04 437.505/2401.250
Gurwin Techsat 1B 21 Jan 12:58:37 13:03:55 80° 73° (ENE) 13:09:16 435.225
YUBILEINY 21 Jan 13:05:49 13:08:31 12° 292° (WNW) 13:11:14 435.215
DX 1 21 Jan 13:10:57 13:13:25 15° 90° (E) 13:15:53 434.975-435.025
Oscar 19 21 Jan 13:10:59 13:16:08 64° 258° (WSW) 13:21:20 437.125/150
AO-91 21 Jan 13:14:19 13:17:34 43° 262° (W) 13:20:57 145.960
LO-87 21 Jan 13:15:32 13:16:03 10° 300° (WNW) 13:16:32 145.935 - 145.965
BUGSAT 1 21 Jan 13:44:59 13:47:34 16° 270° (W) 13:50:10 437.445
PCSat 21 Jan 14:06:29 14:06:56 10° 351° (N) 14:07:23 145.827
RS-15 21 Jan 14:08:59 14:19:59 37° 15° (NNE) 14:30:27 29.354- 29.394
M-CUBED/EXP-1 PRIME 21 Jan 14:11:48 14:12:34 10° 52° (NE) 14:13:19 437.505
ITAMSAT 1 21 Jan 14:18:16 14:22:56 36° 65° (ENE) 14:27:38 435.822/435.867
AO-85 21 Jan 14:21:26 14:24:27 19° 330° (NNW) 14:27:38 145.980
SO-50 21 Jan 14:21:31 14:26:07 55° 238° (WSW) 14:30:46 436.795
SPROUT 21 Jan 14:26:55 14:29:11 14° 301° (WNW) 14:31:26 437.525
VELOX 1 21 Jan 14:31:22 14:34:44 22° 297° (WNW) 14:38:06 145.980
UKube-1 21 Jan 14:33:09 14:37:24 60° 101° (E) 14:41:40 .
50 SAT 21 Jan 14:38:35 14:41:40 59° 286° (WNW) 14:44:44 437.505
AO-7 21 Jan 14:38:43 14:47:06 87° 251° (WSW) 14:55:33 .
Gurwin Techsat 1B 21 Jan 14:41:19 14:44:30 16° 272° (W) 14:47:42 435.225
DX 1 21 Jan 14:45:42 14:50:01 64° 288° (WNW) 14:54:18 434.975-435.025
MOZHAYETS 4 21 Jan 14:50:03 14:54:10 30° 95° (E) 14:58:12
BEESAT 21 Jan 15:01:45 15:05:33 23° 93° (E) 15:09:20 436.000
M-CUBED/EXP-1 PRIME 21 Jan 15:42:04 15:46:21 74° 69° (ENE) 15:50:21 437.505
PCSat 21 Jan 15:50:50 15:53:00 12° 18° (NNE) 15:55:08 145.827
DOVE 4 21 Jan 15:52:14 15:56:25 60° 73° (ENE) 16:00:31 437.250
CUTE-I 21 Jan 15:56:04 15:59:04 15° 54° (NE) 16:02:03 437.470
ITAMSAT 1 21 Jan 15:57:42 16:02:24 35° 263° (W) 16:07:08 435.822/435.867
ITUPSAT 1 21 Jan 15:59:19 16:04:09 75° 103° (ESE) 16:08:58 437.325
UKube-1 21 Jan 16:10:11 16:13:00 17° 300° (WNW) 16:15:47 .
HO-68 21 Jan 16:15:30 16:20:22 20° 49° (NE) 16:25:15 435.675
LilacSat-2 21 Jan 16:20:52 16:23:42 20° 65° (ENE) 16:26:31 437.200
XW-2C 21 Jan 16:22:39 16:25:23 19° 64° (ENE) 16:28:08 145.795 - 145.815
RS-15 21 Jan 16:22:54 16:34:50 72° 47° (NE) 16:46:04 29.354- 29.394
MOZHAYETS 4 21 Jan 16:27:08 16:31:20 34° 293° (WNW) 16:35:29
CUBESAT XI-V 21 Jan 16:30:48 16:35:27 78° 102° (ESE) 16:40:02 437.345
AO-7 21 Jan 16:35:03 16:41:00 21° 271° (W) 16:47:02 .
BEESAT 21 Jan 16:38:56 16:43:34 48° 291° (WNW) 16:48:08 436.000
BEESAT 3 21 Jan 16:52:23 16:55:36 23° 38° (NE) 16:58:47 437.485
KAITUO 1B 21 Jan 16:55:26 16:58:43 29° 68° (ENE) 17:01:59 145.475/437.950
XW-2F 21 Jan 16:57:36 17:01:09 39° 71° (ENE) 17:04:44 145.980 - 146.000
CUTE 1.7 + AOD 2 21 Jan 17:04:42 17:07:39 18° 62° (ENE) 17:10:35 437.475
NUDT-PHONESAT 21 Jan 17:05:25 17:08:50 34° 70° (ENE) 17:12:15 437.300
XW-2D 21 Jan 17:07:27 17:11:13 57° 73° (ENE) 17:14:58 145.860 - 145.880
M-CUBED/EXP-1 PRIME 21 Jan 17:19:09 17:21:03 13° 264° (W) 17:22:56 437.505
CUBEBUG 2 21 Jan 17:21:10 17:24:18 19° 61° (ENE) 17:27:31 437.445
XW-2B 21 Jan 17:25:00 17:28:50 87° 83° (E) 17:32:41 145.730 - 145.750
UWE-3 21 Jan 17:26:41 17:28:54 14° 57° (ENE) 17:31:08 435.000/436.395/437.385
DOVE 4 21 Jan 17:32:14 17:34:31 14° 270° (W) 17:36:47 437.250
CUTE-I 21 Jan 17:33:01 17:38:20 84° 72° (ENE) 17:43:41 437.470
PCSat 21 Jan 17:33:16 17:38:09 33° 43° (NE) 17:43:01 145.827
NO-84 21 Jan 17:37:33 17:40:33 62° 144° (SE) 17:43:25 435.350 FM
ITUPSAT 1 21 Jan 17:38:21 17:41:25 17° 302° (WNW) 17:44:28 437.325
BEESAT 2 21 Jan 17:41:24 17:44:37 22° 36° (NE) 17:47:47 435.950
AO-85 21 Jan 17:47:00 17:49:15 13° 20° (NNE) 17:51:34 145.980
ZACube-1 21 Jan 17:49:38 17:51:33 13° 57° (ENE) 17:53:29 437.345
KKS-1 21 Jan 17:52:23 17:56:52 80° 104° (ESE) 18:01:19 437.445
LilacSat-2 21 Jan 17:54:04 17:57:43 39° 262° (W) 18:01:22 437.200
XW-2C 21 Jan 17:55:40 17:59:18 40° 262° (W) 18:02:56 145.795 - 145.815
AO-73 21 Jan 17:56:00 17:58:00 13° 57° (ENE) 18:00:01 145.935
HO-68 21 Jan 17:59:55 18:07:04 79° 70° (ENE) 18:14:14 435.675
AAUSAT CUBESAT 2 21 Jan 18:06:39 18:09:44 21° 64° (ENE) 18:12:51 437.432
STARS 21 Jan 18:07:00 18:11:17 46° 100° (E) 18:15:32 437.465
CUBESAT XI-V 21 Jan 18:09:34 18:12:12 15° 302° (WNW) 18:14:51 437.345
SEEDS 21 Jan 18:25:16 18:29:28 69° 75° (ENE) 18:33:40 437.485
Oscar 11 21 Jan 18:27:57 18:30:35 16° 60° (ENE) 18:33:14 .
BEESAT 3 21 Jan 18:29:33 18:33:23 52° 238° (WSW) 18:37:08 437.485
KAITUO 1B 21 Jan 18:29:34 18:32:40 24° 265° (W) 18:35:46 145.475/437.950
XW-2F 21 Jan 18:32:44 18:35:25 18° 268° (W) 18:38:06 145.980 - 146.000
RS-15 21 Jan 18:36:05 18:46:30 40° 252° (WSW) 18:56:29 29.354- 29.394
CUTE 1.7 + AOD 2 21 Jan 18:38:56 18:43:06 53° 260° (W) 18:47:18 437.475
NUDT-PHONESAT 21 Jan 18:39:59 18:42:45 20° 267° (W) 18:45:33 437.300
XW-2D 21 Jan 18:43:55 18:45:44 13° 271° (W) 18:47:33 145.860 - 145.880
XW-2A 21 Jan 18:51:21 18:54:37 44° 72° (ENE) 18:57:55 145.665 - 145.685
CUBEBUG 2 21 Jan 18:56:09 19:00:29 56° 260° (W) 19:05:00 437.445
UWE-3 21 Jan 19:00:10 19:04:37 87° 250° (WSW) 19:09:15 435.000/436.395/437.385
NO-84 21 Jan 19:15:19 19:17:52 26° 343° (NNW) 19:20:21 435.350 FM
CUTE-I 21 Jan 19:16:08 19:19:04 15° 272° (W) 19:22:01 437.470
PCSat 21 Jan 19:16:31 19:21:48 53° 243° (WSW) 19:27:03 145.827
BEESAT 2 21 Jan 19:18:41 19:22:39 60° 237° (WSW) 19:26:34 435.950
ZACube-1 21 Jan 19:22:36 19:27:04 86° 78° (ENE) 19:31:40 437.345
AO-85 21 Jan 19:26:27 19:30:57 38° 42° (NE) 19:35:44 145.980
FO-29 21 Jan 19:28:31 19:32:24 21° 91° (E) 19:36:18 435.910
AO-73 21 Jan 19:29:01 19:33:30 88° 77° (ENE) 19:38:04 145.935
KKS-1 21 Jan 19:30:26 19:32:49 14° 302° (WNW) 19:35:12 437.445
STRAND 1 21 Jan 19:40:15 19:45:21 59° 101° (E) 19:50:25 437.568
AAUSAT CUBESAT 2 21 Jan 19:41:00 19:44:56 42° 262° (W) 19:48:53 437.432
STARS 21 Jan 19:43:56 19:47:20 22° 298° (WNW) 19:50:43 437.465
nSIGHT-1 21 Jan 19:48:56 19:50:18 12° 135° (SE) 19:51:40 .
HO-68 21 Jan 19:50:05 19:55:32 23° 270° (W) 20:01:01 435.675
Oscar 11 21 Jan 20:01:54 20:06:13 67° 258° (WSW) 20:10:35 .
SEEDS 21 Jan 20:03:41 20:05:37 13° 272° (W) 20:07:32 437.485
ISS 21 Jan 20:04:28 20:05:52 12° 134° (SE) 20:07:17 437.550
DELFI C3 21 Jan 20:12:23 20:15:52 31° 68° (ENE) 20:19:21 145.870
XW-2A 21 Jan 20:25:52 20:27:33 13° 269° (W) 20:29:15 145.665 - 145.685
UWE-3 21 Jan 20:41:01 20:41:49 10° 275° (W) 20:42:39 435.000/436.395/437.385
Max Valier Satellite 21 Jan 20:43:46 20:47:21 45° 72° (ENE) 20:50:57 145.860
NO-84 21 Jan 20:53:32 20:55:40 19° 4° (N) 20:57:49 435.350 FM
EO-88 21 Jan 21:01:05 21:04:36 47° 72° (ENE) 21:08:09 145.990 - 145.960
ZACube-1 21 Jan 21:02:28 21:04:00 12° 274° (W) 21:05:33 437.345
AO-85 21 Jan 21:06:49 21:11:29 43° 240° (WSW) 21:16:25 145.980
AO-73 21 Jan 21:09:01 21:10:23 11° 274° (W) 21:11:47 145.935
FO-29 21 Jan 21:12:52 21:17:58 55° 290° (WNW) 21:23:03 435.910
TIGRISAT 21 Jan 21:19:53 21:23:52 26° 93° (E) 21:27:50 435.000
STRAND 1 21 Jan 21:20:11 21:24:09 23° 300° (WNW) 21:28:06 437.568
nSIGHT-1 21 Jan 21:22:49 21:25:58 68° 152° (SSE) 21:29:07 .
UNISAT 6 21 Jan 21:35:05 21:39:31 39° 97° (E) 21:43:55 437.425
ISS 21 Jan 21:38:35 21:41:49 66° 152° (SSE) 21:45:05 437.550
DELFI C3 21 Jan 21:47:26 21:50:38 24° 266° (W) 21:53:50 145.870
SPROUT 21 Jan 22:13:15 22:14:36 11° 57° (ENE) 22:15:58 437.525
YUBILEINY 21 Jan 22:14:16 22:22:04 37° 84° (E) 22:29:51 435.215
LO-87 21 Jan 22:18:12 22:21:38 49° 73° (ENE) 22:25:09 145.935 - 145.965
Max Valier Satellite 21 Jan 22:19:07 22:21:24 15° 269° (W) 22:23:42 145.860
ESTCUBE 1 21 Jan 22:21:47 22:26:09 49° 70° (ENE) 22:30:31 437.505/2401.250
NO-84 21 Jan 22:30:37 22:33:21 42° 26° (NNE) 22:36:06 435.350 FM
EO-88 21 Jan 22:36:28 22:38:29 14° 269° (W) 22:40:32 145.990 - 145.960
TIGRISAT 21 Jan 22:56:16 23:00:40 40° 291° (WNW) 23:05:03 435.000
nSIGHT-1 21 Jan 22:59:13 23:02:16 42° 352° (N) 23:05:19 .
PRISM 21 Jan 23:09:57 23:14:03 80° 105° (ESE) 23:18:08 437.425
UNISAT 6 21 Jan 23:12:05 23:16:03 28° 295° (WNW) 23:20:02 437.425
ISS 21 Jan 23:15:16 23:18:26 44° 352° (N) 23:21:36 437.550
AIST 2D 21 Jan 23:21:43 23:25:09 55° 100° (E) 23:28:32 435.315
POLYITAN 1 21 Jan 23:25:30 23:28:40 20° 92° (E) 23:31:49 437.675
NANOSAT C BR1 21 Jan 23:40:09 23:43:40 24° 94° (E) 23:47:08 145.865
SPROUT 21 Jan 23:45:32 23:49:47 86° 72° (ENE) 23:54:05 437.525
LO-87 21 Jan 23:53:38 23:55:20 13° 270° (W) 23:57:03 145.935 - 145.965
VELOX 1 21 Jan 23:54:22 23:58:42 61° 72° (ENE) 00:03:02 145.980
QB50P2 21 Jan 23:54:38 23:58:44 42° 98° (E) 00:02:48 145.880/145.840
UKube-1 21 Jan 23:58:21 23:59:23 11° 55° (NE) 00:00:25 .
ESTCUBE 1 21 Jan 23:59:50 00:03:12 20° 268° (W) 00:06:35 437.505/2401.250
NO-84 22 Jan 00:07:58 00:10:22 24° 224° (SW) 00:12:50 435.350 FM
DX 1 22 Jan 00:09:20 00:12:34 21° 62° (ENE) 00:15:48 434.975-435.025
YUBILEINY 22 Jan 00:09:51 00:18:30 58° 286° (WNW) 00:27:11 435.215
O/OREOS (USA 219) 22 Jan 00:13:04 00:17:15 39° 108° (ESE) 00:21:27 437.305
DUCHIFAT 1 22 Jan 00:22:56 00:27:09 57° 101° (E) 00:31:21 145.980
EO-79 22 Jan 00:25:09 00:29:27 79° 102° (ESE) 00:33:44 145.935-145.965
nSIGHT-1 22 Jan 00:35:42 00:38:48 46° 12° (NNE) 00:41:52 .
PRISM 22 Jan 00:47:01 00:48:44 12° 302° (WNW) 00:50:26 437.425
ISS 22 Jan 00:52:06 00:55:17 47° 11° (NNE) 00:58:29 437.550
AIST 2D 22 Jan 00:56:23 00:57:52 12° 298° (WNW) 00:59:20 435.315
AO-91 22 Jan 00:59:03 01:02:51 26° 95° (E) 01:06:55 145.960
POLYITAN 1 22 Jan 01:00:32 01:04:40 46° 290° (WNW) 01:08:46 437.675
50 SAT 22 Jan 01:05:38 01:08:40 59° 74° (ENE) 01:11:44 437.505
Gurwin Techsat 1B 22 Jan 01:11:55 01:16:11 24° 92° (E) 01:20:26 435.225
NANOSAT C BR1 22 Jan 01:15:30 01:19:27 37° 292° (WNW) 01:23:22 145.865
Oscar 19 22 Jan 01:19:13 01:23:57 35° 96° (E) 01:28:37 437.125/150
BUGSAT 1 22 Jan 01:21:04 01:25:16 57° 101° (E) 01:29:27 437.445
SPROUT 22 Jan 01:25:29 01:26:16 10° 273° (W) 01:27:05 437.525
UKube-1 22 Jan 01:30:21 01:34:39 79° 74° (ENE) 01:38:58 .
QB50P2 22 Jan 01:30:55 01:34:16 22° 296° (WNW) 01:37:35 145.880/145.840
VELOX 1 22 Jan 01:32:55 01:35:32 15° 270° (W) 01:38:10 145.980
ITUPSAT 1 22 Jan 01:33:17 01:36:37 19° 59° (ENE) 01:39:57 437.325
DX 1 22 Jan 01:44:16 01:48:27 47° 260° (W) 01:52:39 434.975-435.025
O/OREOS (USA 219) 22 Jan 01:52:54 01:56:46 28° 307° (NW) 02:00:39 437.305
MOZHAYETS 4 22 Jan 01:54:47 01:59:09 42° 69° (ENE) 02:03:33
DUCHIFAT 1 22 Jan 01:59:35 02:02:24 17° 299° (WNW) 02:05:12 145.980
CUBESAT XI-V 22 Jan 02:02:00 02:04:50 16° 59° (ENE) 02:07:39 437.345
EO-79 22 Jan 02:02:31 02:04:37 14° 301° (WNW) 02:06:43 145.935-145.965
BEESAT 22 Jan 02:11:00 02:15:25 39° 67° (ENE) 02:19:51 436.000
nSIGHT-1 22 Jan 02:11:54 02:15:00 51° 211° (SSW) 02:18:06 .
YUBILEINY 22 Jan 02:13:07 02:17:39 15° 312° (NW) 02:22:13 435.215
ISS 22 Jan 02:28:37 02:31:50 53° 211° (SSW) 02:35:02 437.550
AO-91 22 Jan 02:35:15 02:39:21 40° 290° (WNW) 02:43:52 145.960
AO-7 22 Jan 02:37:18 02:43:57 25° 91° (E) 02:50:31 .
Gurwin Techsat 1B 22 Jan 02:51:16 02:56:26 54° 291° (WNW) 03:01:36 435.225
BUGSAT 1 22 Jan 02:57:22 03:00:12 18° 299° (WNW) 03:03:01 437.445
